| time (UTC) | temp F | wind direction | speed MPH | gust MPH | rain 1hr in | rain 24hr in | rain mn in | humidity % | barometer mb |
| 20260502223050 | 90 | 120 | 15.0 | 0.0 | 0.00 | 0.00 | 0.00 | 41 | 1006.0 |
| 20260502222049 | 90 | 120 | 15.0 | 0.0 | 0.00 | 0.00 | 0.00 | 41 | 1006.0 |
| 20260502221049 | 91 | 120 | 15.0 | 0.0 | 0.00 | 0.00 | 0.00 | 41 | 1006.0 |
| 20260502220049 | 91 | 120 | 15.0 | 0.0 | 0.00 | 0.00 | 0.00 | 41 | 1006.0 |
| 20260502215048 | 91 | 120 | 15.0 | 0.0 | 0.00 | 0.00 | 0.00 | 41 | 1006.0 |
| 20260502214047 | 91 | 120 | 15.0 | 0.0 | 0.00 | 0.00 | 0.00 | 41 | 1006.0 |
| 20260502213047 | 91 | 120 | 15.0 | 0.0 | 0.00 | 0.00 | 0.00 | 41 | 1006.0 |
| 20260502212046 | 91 | 120 | 11.0 | 0.0 | 0.00 | 0.00 | 0.00 | 41 | 1007.0 |
| 20260502211045 | 91 | 120 | 11.0 | 0.0 | 0.00 | 0.00 | 0.00 | 41 | 1007.0 |
| 20260502210045 | 92 | 120 | 11.0 | 0.0 | 0.00 | 0.00 | 0.00 | 41 | 1007.0 |
| 20260502205044 | 93 | 120 | 11.0 | 0.0 | 0.00 | 0.00 | 0.00 | 41 | 1007.0 |
| 20260502204044 | 93 | 120 | 11.0 | 0.0 | 0.00 | 0.00 | 0.00 | 41 | 1007.0 |
| 20260502203043 | 93 | 120 | 11.0 | 0.0 | 0.00 | 0.00 | 0.00 | 41 | 1007.0 |
| 20260502202043 | 93 | 80 | 4.0 | 0.0 | 0.00 | 0.00 | 0.00 | 41 | 1008.0 |
| 20260502201042 | 93 | 80 | 4.0 | 0.0 | 0.00 | 0.00 | 0.00 | 41 | 1008.0 |
| 20260502200042 | 93 | 80 | 4.0 | 0.0 | 0.00 | 0.00 | 0.00 | 41 | 1008.0 |
| 20260502195041 | 93 | 80 | 4.0 | 0.0 | 0.00 | 0.00 | 0.00 | 41 | 1008.0 |
| 20260502194041 | 94 | 80 | 4.0 | 0.0 | 0.00 | 0.00 | 0.00 | 41 | 1008.0 |
| 20260502193040 | 89 | 100 | 5.0 | 0.0 | 0.00 | 0.00 | 0.00 | 43 | 1008.0 |
| 20260502192040 | 89 | 100 | 5.0 | 0.0 | 0.00 | 0.00 | 0.00 | 44 | 1009.0 |
| 20260502191039 | 90 | 100 | 5.0 | 0.0 | 0.00 | 0.00 | 0.00 | 44 | 1009.0 |
| 20260502190039 | 91 | 100 | 6.0 | 0.0 | 0.00 | 0.00 | 0.00 | 44 | 1009.0 |
| 20260502185038 | 92 | 100 | 6.0 | 0.0 | 0.00 | 0.00 | 0.00 | 44 | 1009.0 |
| 20260502184038 | 88 | 100 | 6.0 | 0.0 | 0.00 | 0.00 | 0.00 | 47 | 1009.0 |
| 20260502183037 | 88 | 100 | 6.0 | 0.0 | 0.00 | 0.00 | 0.00 | 47 | 1009.0 |
| 20260502182037 | 88 | 50 | 4.0 | 0.0 | 0.00 | 0.00 | 0.00 | 49 | 1010.0 |
| 20260502181036 | 88 | 50 | 4.0 | 0.0 | 0.00 | 0.00 | 0.00 | 49 | 1010.0 |
| 20260502164031 | 88 | 30 | 4.0 | 0.0 | 0.00 | 0.00 | 0.00 | 56 | 1011.0 |
| 20260502163032 | 89 | 30 | 4.0 | 0.0 | 0.00 | 0.00 | 0.00 | 57 | 1011.0 |
| 20260502162031 | 84 | 70 | 5.0 | 0.0 | 0.00 | 0.00 | 0.00 | 62 | 1012.0 |
| 20260502161030 | 85 | 70 | 6.0 | 0.0 | 0.00 | 0.00 | 0.00 | 62 | 1012.0 |
| 20260502152027 | 83 | 81 | 5.0 | 7.0 | 0.00 | 0.00 | 0.00 | 70 | 1012.0 |
| 20260502151027 | 81 | 90 | 9.0 | 0.0 | 0.00 | 0.00 | 0.00 | 70 | 1012.0 |
| 20260502123019 | 77 | 120 | 4.0 | 0.0 | 0.00 | 0.00 | 0.00 | 84 | 1011.0 |
| 20260502122018 | 77 | 120 | 4.0 | 0.0 | 0.00 | 0.00 | 0.00 | 84 | 1011.0 |
| 20260502121018 | 75 | 108 | 5.0 | 8.0 | 0.00 | 0.00 | 0.00 | 88 | 1011.0 |
| 20260502115017 | 75 | 108 | 5.0 | 8.0 | 0.00 | 0.00 | 0.00 | 88 | 1011.0 |
| 20260502114016 | 75 | 108 | 5.0 | 8.0 | 0.00 | 0.00 | 0.00 | 88 | 1011.0 |
| 20260502113015 | 75 | 108 | 5.0 | 8.0 | 0.00 | 0.00 | 0.00 | 88 | 1011.0 |
| 20260502112015 | 75 | 108 | 5.0 | 8.0 | 0.00 | 0.00 | 0.00 | 88 | 1010.0 |
| 20260502111015 | 75 | 108 | 5.0 | 8.0 | 0.00 | 0.00 | 0.00 | 88 | 1010.0 |
| 20260502110014 | 75 | 108 | 5.0 | 8.0 | 0.00 | 0.00 | 0.00 | 88 | 1010.0 |
| 20260502105014 | 75 | 108 | 5.0 | 8.0 | 0.00 | 0.00 | 0.00 | 88 | 1010.0 |
| 20260502104013 | 75 | 108 | 5.0 | 8.0 | 0.00 | 0.00 | 0.00 | 88 | 1010.0 |
| 20260502103013 | 76 | 108 | 5.0 | 8.0 | 0.00 | 0.00 | 0.00 | 87 | 1010.0 |
| 20260502102012 | 74 | 106 | 6.0 | 9.0 | 0.00 | 0.00 | 0.00 | 88 | 1010.0 |
| 20260502101012 | 75 | 80 | 4.0 | 0.0 | 0.00 | 0.00 | 0.00 | 88 | 1010.0 |
| 20260502091009 | 75 | 108 | 6.0 | 10.0 | 0.00 | 0.00 | 0.00 | 84 | 1010.0 |
| 20260502071003 | 78 | 120 | 8.0 | 0.0 | 0.00 | 0.00 | 0.00 | 81 | 1010.0 |
| 20260502070002 | 79 | 120 | 9.0 | 0.0 | 0.00 | 0.00 | 0.00 | 80 | 1010.0 |
| 20260502065001 | 79 | 120 | 9.0 | 0.0 | 0.00 | 0.00 | 0.00 | 79 | 1010.0 |
| 20260502064001 | 80 | 120 | 9.0 | 0.0 | 0.00 | 0.00 | 0.00 | 78 | 1010.0 |
| 20260502063000 | 81 | 115 | 6.0 | 12.0 | 0.00 | 0.00 | 0.00 | 76 | 1010.0 |
| 20260502062000 | 77 | 118 | 7.0 | 13.0 | 0.00 | 0.00 | 0.00 | 79 | 1010.0 |
| 20260502060959 | 77 | 118 | 7.0 | 13.0 | 0.00 | 0.00 | 0.00 | 79 | 1010.0 |
| 20260502055959 | 78 | 118 | 7.0 | 13.0 | 0.00 | 0.00 | 0.00 | 79 | 1010.0 |
| 20260502054958 | 78 | 118 | 7.0 | 13.0 | 0.00 | 0.00 | 0.00 | 78 | 1010.0 |
| 20260502053958 | 79 | 118 | 7.0 | 13.0 | 0.00 | 0.00 | 0.00 | 76 | 1011.0 |
| 20260502052957 | 77 | 117 | 8.0 | 14.0 | 0.00 | 0.00 | 0.00 | 77 | 1011.0 |
| 20260502051957 | 77 | 140 | 8.0 | 0.0 | 0.00 | 0.00 | 0.00 | 77 | 1011.0 |
| 20260502050956 | 78 | 140 | 8.0 | 0.0 | 0.00 | 0.00 | 0.00 | 77 | 1011.0 |
| 20260502045956 | 78 | 140 | 9.0 | 0.0 | 0.00 | 0.00 | 0.00 | 77 | 1011.0 |
| 20260502044955 | 78 | 140 | 9.0 | 0.0 | 0.00 | 0.00 | 0.00 | 77 | 1011.0 |
| 20260502043955 | 79 | 140 | 9.0 | 0.0 | 0.00 | 0.00 | 0.00 | 76 | 1010.0 |
| 20260502042954 | 80 | 140 | 9.0 | 0.0 | 0.00 | 0.00 | 0.00 | 75 | 1010.0 |
| 20260502041954 | 78 | 140 | 11.0 | 0.0 | 0.00 | 0.00 | 0.00 | 74 | 1010.0 |
| 20260502040953 | 78 | 140 | 11.0 | 0.0 | 0.00 | 0.00 | 0.00 | 74 | 1010.0 |
| 20260502035953 | 79 | 140 | 11.0 | 0.0 | 0.00 | 0.00 | 0.00 | 74 | 1010.0 |
| 20260502034952 | 80 | 140 | 11.0 | 0.0 | 0.00 | 0.00 | 0.00 | 74 | 1010.0 |
| 20260502033952 | 80 | 140 | 11.0 | 0.0 | 0.00 | 0.00 | 0.00 | 75 | 1010.0 |
| 20260502032951 | 80 | 140 | 11.0 | 0.0 | 0.00 | 0.00 | 0.00 | 75 | 1010.0 |
| 20260502031951 | 80 | 140 | 11.0 | 0.0 | 0.00 | 0.00 | 0.00 | 75 | 1010.0 |
| 20260502030950 | 80 | 140 | 11.0 | 0.0 | 0.00 | 0.00 | 0.00 | 75 | 1010.0 |
| 20260502025950 | 81 | 140 | 11.0 | 0.0 | 0.00 | 0.00 | 0.00 | 75 | 1010.0 |
| 20260502024949 | 81 | 140 | 11.0 | 0.0 | 0.00 | 0.00 | 0.00 | 75 | 1010.0 |
| 20260502023949 | 81 | 140 | 11.0 | 0.0 | 0.00 | 0.00 | 0.00 | 76 | 1010.0 |
| 20260502022948 | 81 | 140 | 11.0 | 0.0 | 0.00 | 0.00 | 0.00 | 77 | 1009.0 |
| 20260502021948 | 81 | 140 | 11.0 | 0.0 | 0.00 | 0.00 | 0.00 | 78 | 1009.0 |
| 20260502020947 | 81 | 140 | 11.0 | 0.0 | 0.00 | 0.00 | 0.00 | 78 | 1009.0 |
| 20260502015947 | 81 | 140 | 11.0 | 0.0 | 0.00 | 0.00 | 0.00 | 77 | 1009.0 |
| 20260502014946 | 82 | 140 | 11.0 | 0.0 | 0.00 | 0.00 | 0.00 | 76 | 1009.0 |
| 20260502013946 | 82 | 140 | 11.0 | 0.0 | 0.00 | 0.00 | 0.00 | 74 | 1008.0 |
| 20260502012945 | 82 | 140 | 11.0 | 0.0 | 0.00 | 0.00 | 0.00 | 73 | 1007.0 |
| 20260502011945 | 82 | 140 | 11.0 | 0.0 | 0.00 | 0.00 | 0.00 | 72 | 1007.0 |
| 20260502010944 | 82 | 140 | 11.0 | 0.0 | 0.00 | 0.00 | 0.00 | 70 | 1007.0 |
| 20260502005944 | 83 | 140 | 11.0 | 0.0 | 0.00 | 0.00 | 0.00 | 70 | 1007.0 |
| 20260502004943 | 84 | 140 | 11.0 | 0.0 | 0.00 | 0.00 | 0.00 | 70 | 1007.0 |
| 20260502003942 | 84 | 140 | 11.0 | 0.0 | 0.00 | 0.00 | 0.00 | 70 | 1007.0 |
| 20260502002942 | 85 | 140 | 11.0 | 0.0 | 0.00 | 0.00 | 0.00 | 70 | 1007.0 |
| 20260502001941 | 84 | 140 | 11.0 | 0.0 | 0.00 | 0.00 | 0.00 | 62 | 1007.0 |
| 20260502000941 | 85 | 157 | 3.0 | 8.0 | 0.00 | 0.00 | 0.00 | 60 | 1007.0 |
| 20260501235940 | 84 | 110 | 20.0 | 0.0 | 0.00 | 0.00 | 0.00 | 64 | 1007.0 |
| 20260501234940 | 84 | 110 | 20.0 | 0.0 | 0.00 | 0.00 | 0.00 | 63 | 1007.0 |
| 20260501233939 | 85 | 110 | 20.0 | 0.0 | 0.00 | 0.00 | 0.00 | 62 | 1006.0 |
| 20260501232939 | 86 | 110 | 20.0 | 0.0 | 0.00 | 0.00 | 0.00 | 58 | 1006.0 |
| 20260501231938 | 86 | 110 | 20.0 | 0.0 | 0.00 | 0.00 | 0.00 | 53 | 1006.0 |
| 20260501230938 | 86 | 110 | 20.0 | 0.0 | 0.00 | 0.00 | 0.00 | 49 | 1006.0 |
| 20260501225937 | 87 | 110 | 20.0 | 0.0 | 0.00 | 0.00 | 0.00 | 49 | 1006.0 |
| 20260501224937 | 87 | 110 | 20.0 | 0.0 | 0.00 | 0.00 | 0.00 | 49 | 1006.0 |
| 20260501223936 | 88 | 110 | 20.0 | 0.0 | 0.00 | 0.00 | 0.00 | 48 | 1006.0 |